Notices

What's New in latest Release from April 7th, 2021:

- Updated Glossary, including Speed of Maximum Gust, and Total Hourly Precipitation

- Updated national and regional climate services offices contacts and prices information

- Addition of station inventory lists for 1981-2010, 1971-2000, and 1961-1990 Normals.

If you haven't already, please take our survey and provide feedback about our website: https://eccc.sondage-survey.ca/f/LanguageSelection.aspx?s=442ca660-fcf1-47c0-95a9-59707d6fd709

Hourly Data Report for December 09, 2019

SAINT JOHN A
NEW BRUNSWICK
Current Station Operator: NAVCAN

45°18'58.000" N
65°53'24.000" W
108.80 m
8104901
71609
YSJ

Download Data

Hourly Data (December 2019)
Hourly Data Report for December 9, 2019
TIME
LST
Temp Definition
°C
Dew Point Definition
°C
Rel Hum Definition
%
Precip. Amount Definition
mm

Wind Dir Definition
10's deg

Wind Spd Definition
km/h
Visibility Definition
km
Stn Press Definition
kPa
Hmdx Definition


Wind Chill Definition


Weather Definition


00:00 3.5 -1.3 71   21 41 24.1 101.17     LegendNANA
01:00 3.6 -1.2 71   21 32 24.1 101.08     LegendNANA
02:00 4.1 -1.2 68   22 32 24.1 101.09     Cloudy
03:00 4.4 -0.5 71   22 29 24.1 101.06     LegendNANA
04:00 4.9 0.6 73   22 39 24.1 101.02     LegendNANA
05:00 4.5 2.5 87   23 32 16.1 100.99     Rain
06:00 4.9 3.1 88   23 32 16.1 100.98     Rain
07:00 5.0 3.6 90   22 22 9.7 100.99     Rain,Fog
08:00 5.5 4.2 91   23 28 8.1 101.01     Rain,Fog
09:00 5.8 4.9 94   22 28 8.1 101.02     Rain,Fog
10:00 6.1 5.2 94   22 25 9.7 101.06     Rain,Fog
11:00 6.6 5.9 95   22 27 9.7 101.04     Rain,Fog
12:00 6.8 6.3 96   23 22 6.4 100.99     Rain,Fog
13:00 7.2 6.8 97   23 22 6.4 100.93     Rain,Fog
14:00 7.2 6.9 98   22 21 3.2 100.88     Rain,Fog
15:00 7.2 7.0 99   20 33 3.2 100.84     Rain,Fog
16:00 7.3 7.2 99   20 34 4.8 100.78     Moderate Rain,Fog
17:00 7.7 7.5 99   19 36 4.8 100.71     Moderate Rain,Fog
18:00 8.6 8.4 98   17 39 8.1 100.60     Moderate Rain,Fog
19:00 8.5 8.2 98   17 35 8.1 100.48     Moderate Rain,Fog
20:00 8.8 8.4 98   17 32 6.4 100.32     Moderate Rain,Fog
21:00 9.2 9.0 98   17 36 8.1 100.14     Rain,Fog
22:00 9.7 9.4 98   16 41 8.1 99.96     Rain,Fog
23:00 10.6 10.2 98   17 43 8.1 99.75     Moderate Rain,Fog

Notes on Data Quality.

Legend

  • E = Estimated
  • M = Missing
  • NA = Not Available*
  • [empty] = Indicates an unobserved value
Date modified: